Lancaster, OH

5:13 PM EDT on June 27, 2017 (GMT -0400)
Fairfield County

Weather History for KLHQ - March, 2014

Change the Weather History Date:

Friday, March 21, 2014

  Actual Average Record
Temperature  
Mean Temperature 50 °F -  
Max Temperature 66 °F 50 °F 84 °F (2012)
Min Temperature 33 °F 31 °F 14 °F (1965)
Degree Days  
Heating Degree Days 16    
Moisture  
Dew Point 30 °F    
Average Humidity 54    
Maximum Humidity 86    
Minimum Humidity 24    
Precipitation  
Precipitation 0.00 in - - ()
Sea Level Pressure  
Sea Level Pressure 29.98 in    
Wind  
Wind Speed 5 mph (SSW)    
Max Wind Speed 15 mph    
Max Gust Speed 18 mph    
Visibility 9 miles    
Events      
Averages and records for this station are not official NWS values.
T = Trace of Precipitation, MM = Missing Value Source: NWS Daily Summary

Daily Weather History Graph

Daily Weather History Graph

Search for Another Location

Airport or City:

Trip Planner

Search our weather history database for the weather conditions in past years. The results will help you decide how hot, cold, wet, or windy it might be!

Date:

Astronomy

Mar. 21, 2014 Rise Set
Actual Time 7:32 AM EDT 7:43 PM EDT
Civil Twilight 7:05 AM EDT 8:10 PM EDT
Nautical Twilight 6:34 AM EDT 8:42 PM EDT
Astronomical Twilight 6:01 AM EDT 9:14 PM EDT
Moon 12:00 AM EDT (3/21) 10:23 AM EDT (3/21)
Length of Visible Light 13h 05m
Length of Day
12h 11m
Waning Gibbous, 75% of the Moon is Illuminated
Mar 21
Waning Gibbous
Mar 23
Last Quarter
Mar 30
New
Apr 7
First Quarter
Apr 15
Full

Hourly Weather History & Observations

Time (EDT) Temp. Windchill Dew Point Humidity Pressure Visibility Wind Dir Wind Speed Gust Speed Precip Events Conditions
12:53 AM 39.0 °F 34.8 °F 35.1 °F 86% 30.06 in 6.0 mi NNE 5.8 mph - 0.00 in   Overcast
1:53 AM 39.0 °F 36.8 °F 33.1 °F 79% 30.06 in 7.0 mi NNW 3.5 mph - N/A   Overcast
2:53 AM 39.0 °F 36.8 °F 32.0 °F 76% 30.07 in 7.0 mi North 3.5 mph - N/A   Overcast
3:53 AM 37.0 °F 34.5 °F 32.0 °F 82% 30.06 in 7.0 mi North 3.5 mph - N/A   Overcast
4:53 AM 34.0 °F - 28.9 °F 82% 30.07 in 9.0 mi Calm Calm - N/A   Mostly Cloudy
5:53 AM 33.1 °F - 28.0 °F 82% 30.08 in 8.0 mi Calm Calm - N/A   Scattered Clouds
6:53 AM 35.1 °F - 30.9 °F 85% 30.07 in 8.0 mi Calm Calm - N/A   Overcast
7:53 AM 35.1 °F 32.2 °F 28.9 °F 78% 30.09 in 8.0 mi ESE 3.5 mph - N/A   Overcast
8:53 AM 37.0 °F 33.3 °F 28.9 °F 73% 30.08 in 8.0 mi ESE 4.6 mph - N/A   Overcast
9:53 AM 39.9 °F 34.5 °F 30.0 °F 68% 30.07 in 8.0 mi ESE 8.1 mph - N/A   Clear
10:53 AM 44.1 °F 40.1 °F 30.9 °F 60% 30.06 in 9.0 mi East 6.9 mph - N/A   Clear
11:53 AM 48.0 °F - 32.0 °F 54% 30.05 in 10.0 mi Variable 3.5 mph - N/A   Partly Cloudy
12:53 PM 54.0 °F - 33.1 °F 45% 30.02 in 10.0 mi Variable 3.5 mph - N/A   Clear
1:53 PM 57.9 °F - 32.0 °F 37% 29.99 in 10.0 mi West 8.1 mph - N/A   Clear
2:53 PM 61.0 °F - 32.0 °F 34% 29.96 in 10.0 mi West 6.9 mph - N/A   Clear
3:53 PM 64.9 °F - 32.0 °F 29% 29.92 in 10.0 mi West 13.8 mph 18.4 mph N/A   Clear
4:53 PM 66.0 °F - 30.0 °F 26% 29.90 in 10.0 mi SW 11.5 mph - N/A   Clear
5:53 PM 66.0 °F - 28.0 °F 24% 29.87 in 10.0 mi SSW 15.0 mph - N/A   Clear
6:53 PM 64.0 °F - 28.9 °F 27% 29.87 in 10.0 mi SSW 9.2 mph - N/A   Clear
7:53 PM 61.0 °F - 30.0 °F 31% 29.87 in 10.0 mi SSW 8.1 mph - N/A   Clear
8:53 PM 57.9 °F - 30.0 °F 35% 29.87 in 10.0 mi SSW 6.9 mph - N/A   Clear
9:53 PM 59.0 °F - 28.0 °F 31% 29.86 in 10.0 mi SSW 9.2 mph - N/A   Clear
10:53 PM 59.0 °F - 28.0 °F 31% 29.85 in 10.0 mi SSW 8.1 mph - N/A   Clear
11:53 PM 57.9 °F - 28.0 °F 32% 29.83 in 10.0 mi SSW 12.7 mph - N/A   Clear